Location: M�nchen
(48.1404°N, 11.6043°E)
Time: 05:49:06
(UTC+02:00)

ISS - Visible Passes

Search period start: 09 May 2021 00:00
Search period end: 19 May 2021 00:00
Orbit: 418 x 421 km, 51.6° (Epoch: 08 May)

Date Brightness Start Highest point End Pass type
(mag) Time Alt. Az. Time Alt. Az. Time Alt. Az.
09 May -2.2 02:03:26 31° ENE 02:03:26 31° ENE 02:05:22 10° ENE visible
09 May -2.7 03:36:23 14° WNW 03:39:01 44° N 03:42:17 10° ENE visible
10 May -1.0 01:17:26 13° ENE 01:17:26 13° ENE 01:17:55 10° ENE visible
10 May -2.8 02:50:22 32° WNW 02:51:30 47° N 02:54:47 10° ENE visible
10 May -3.0 04:25:19 10° WNW 04:28:39 55° NNE 04:32:00 10° E visible
11 May -2.9 02:04:21 50° NNE 02:04:21 50° NNE 02:07:19 10° ENE visible
11 May -2.7 03:37:51 10° WNW 03:41:09 47° N 03:44:26 10° E visible
12 May -1.8 01:18:16 25° ENE 01:18:16 25° ENE 01:19:52 10° ENE visible
12 May -2.6 02:51:12 16° WNW 02:53:37 44° N 02:56:54 10° ENE visible
12 May -3.8 04:27:16 10° WNW 04:30:40 88° NNE 04:34:03 10° ESE visible
13 May -1.0 00:32:06 12° ENE 00:32:06 12° ENE 00:32:26 10° ENE visible
13 May -2.6 02:05:01 32° NW 02:06:06 44° N 02:09:21 10° ENE visible
13 May -3.4 03:39:50 10° WNW 03:43:12 68° NNE 03:46:35 10° ESE visible
14 May -2.7 01:18:38 46° N 01:18:38 46° N 01:21:51 10° ENE visible
14 May -3.0 02:52:23 10° WNW 02:55:43 55° NNE 02:59:03 10° E visible
14 May -3.4 04:29:16 10° WNW 04:32:31 44° SSW 04:35:46 10° SE visible
14 May -3.6 22:50:58 10° SW 22:54:13 47° SSE 22:55:39 27° E visible
15 May -3.0 00:27:44 10° W 00:31:03 53° NNW 00:34:22 10° ENE visible
15 May -2.8 02:04:55 10° WNW 02:08:12 47° N 02:11:30 10° E visible
15 May -3.9 03:41:47 10° WNW 03:45:08 66° SSW 03:48:30 10° SE visible
15 May -3.0 22:03:51 10° SSW 22:06:52 32° SE 22:09:55 10° E visible
15 May -3.4 23:40:12 10° W 23:43:33 65° NNW 23:46:55 10° ENE visible
16 May -2.6 01:17:25 10° WNW 01:20:41 44° N 01:23:56 10° ENE visible
16 May -3.8 02:54:19 10° WNW 02:57:43 89° NE 03:01:05 10° ESE visible
16 May -2.4 04:31:38 10° W 04:34:12 20° SW 04:36:44 10° S visible
16 May -3.8 22:52:42 10° WSW 22:56:05 85° NNW 22:59:28 10° ENE visible
17 May -2.6 00:29:53 10° WNW 00:33:08 44° N 00:36:24 10° ENE visible
17 May -3.5 02:06:52 10° WNW 02:10:15 68° NNE 02:13:37 10° ESE visible
17 May -3.0 03:43:54 10° W 03:46:53 30° SW 03:49:53 10° SSE visible
17 May -3.9 22:05:18 10° WSW 22:08:39 70° SSE 22:12:01 10° ENE visible
17 May -2.7 23:42:20 10° W 23:45:35 46° N 23:48:53 10° ENE visible
18 May -3.1 01:19:25 10° WNW 01:22:45 55° NNE 01:22:56 54° NNE visible
18 May -2.9 22:54:46 10° W 22:58:04 53° NNW 23:01:24 10° ENE visible
